FW1697 Weather Reports


time (UTC)temp
C
wind
direction
speed
KPH
gust
KPH
rain 1hr
cm
rain 24hr
cm
rain mn
cm
humidity
%
barometer
mb
20260502161207 17 325 8.0 12.9 0.00 0.00 0.00 59 1012.2
20260502160207 17 332 9.7 12.9 0.00 0.00 0.00 58 1012.2
20260502152205 17 286 9.7 14.5 0.00 0.00 0.00 60 1012.7
20260502151706 17 316 9.7 19.3 0.00 0.00 0.00 60 1012.7
20260502151206 17 309 11.3 19.3 0.00 0.00 0.00 60 1012.8
20260502130707 16 309 17.7 22.5 0.00 0.00 0.00 65 1013.4
20260502130206 16 309 16.1 24.1 0.00 0.00 0.00 66 1013.5
20260502123706 16 290 12.9 20.9 0.00 0.00 0.00 65 1013.7
20260502123205 16 283 16.1 24.1 0.00 0.00 0.00 64 1013.8
20260502122706 16 277 14.5 19.3 0.00 0.00 0.00 66 1013.8
20260502122206 16 296 11.3 20.9 0.00 0.00 0.00 66 1013.7
20260502121705 16 316 11.3 22.5 0.00 0.00 0.00 66 1013.7
20260502121206 16 316 11.3 22.5 0.00 0.00 0.00 66 1013.8
20260502120707 16 312 16.1 27.4 0.00 0.00 0.00 66 1013.8
20260502120207 16 327 19.3 32.2 0.00 0.00 0.00 66 1013.8
20260502115707 16 330 11.3 27.4 0.00 0.00 0.00 67 1013.8
20260502115206 16 318 19.3 27.4 0.00 0.00 0.00 68 1013.7
20260502114705 15 334 16.1 29.0 0.00 0.00 0.00 69 1013.7
20260502114206 15 307 16.1 22.5 0.00 0.00 0.00 69 1013.7
20260502113706 15 329 11.3 22.5 0.00 0.00 0.00 70 1013.8
20260502113205 15 305 14.5 20.9 0.00 0.00 0.00 70 1013.9
20260502112205 16 284 12.9 24.1 0.00 0.00 0.00 68 1013.9
20260502111706 16 301 12.9 24.1 0.00 0.00 0.00 70 1013.8
20260502110706 15 236 9.7 19.3 0.00 0.00 0.00 70 1014.1
20260502110206 15 266 14.5 19.3 0.00 0.00 0.00 71 1014.0
20260502105706 15 304 12.9 20.9 0.00 0.00 0.00 70 1014.0
20260502105205 15 291 11.3 22.5 0.00 0.00 0.00 71 1014.1
20260502104706 15 312 14.5 29.0 0.00 0.00 0.00 73 1014.0
20260502104205 15 295 11.3 19.3 0.00 0.00 0.00 73 1014.0
20260502103706 15 254 14.5 19.3 0.00 0.00 0.00 73 1014.0
20260502103206 15 294 14.5 24.1 0.00 0.00 0.00 73 1014.0
20260502102206 15 295 14.5 22.5 0.00 0.00 0.00 74 1014.1
20260502101206 14 309 14.5 22.5 0.00 0.00 0.00 75 1014.1
20260502100706 14 295 16.1 22.5 0.00 0.00 0.00 75 1014.1
20260502100206 14 279 16.1 22.5 0.00 0.00 0.00 76 1014.2
20260502091205 12 284 22.5 32.2 0.00 0.00 0.00 79 1014.4
20260502090707 12 296 20.9 32.2 0.00 0.00 0.00 78 1014.5
20260502090205 12 284 20.9 38.6 0.00 0.00 0.00 79 1014.4
20260502071205 11 294 25.7 37.0 0.00 0.00 0.00 83 1014.1
20260502070706 11 291 20.9 33.8 0.00 0.00 0.00 83 1014.2
20260502070206 11 298 20.9 33.8 0.00 0.00 0.00 84 1014.1
20260502065206 10 294 20.9 32.2 0.00 0.00 0.00 84 1014.2
20260502064706 10 297 17.7 29.0 0.00 0.00 0.00 83 1014.2
20260502063706 10 279 17.7 32.2 0.00 0.00 0.00 84 1014.3
20260502063206 10 299 17.7 24.1 0.00 0.00 0.00 84 1014.4
20260502062205 10 288 16.1 25.7 0.00 0.00 0.00 85 1014.5
20260502061706 10 285 14.5 20.9 0.00 0.00 0.00 85 1014.5
20260502061205 10 276 11.3 16.1 0.00 0.00 0.00 86 1014.5
20260502060706 10 300 9.7 19.3 0.00 0.00 0.00 86 1014.6
20260502060205 10 278 9.7 16.1 0.00 0.00 0.00 86 1014.6
20260502055706 10 270 8.0 16.1 0.00 0.00 0.00 87 1014.6
20260502055205 10 256 9.7 14.5 0.00 0.00 0.00 87 1014.6
20260502054706 9 231 11.3 16.1 0.00 0.00 0.00 88 1014.6
20260502054206 9 227 9.7 14.5 0.00 0.00 0.00 88 1014.6
20260502052705 8 235 4.8 9.7 0.00 0.00 0.00 88 1014.7
20260502052206 8 178 1.6 4.8 0.00 0.00 0.00 88 1014.7
20260502051705 8 137 1.6 4.8 0.00 0.00 0.00 88 1014.6
20260502050705 8 202 3.2 4.8 0.00 0.00 0.00 88 1014.7
20260502050206 8 226 3.2 9.7 0.00 0.00 0.00 88 1014.7
20260502045705 8 181 4.8 12.9 0.00 0.00 0.00 88 1014.7
20260502045205 8 186 3.2 9.7 0.00 0.00 0.00 88 1014.7
20260502044705 8 170 0.0 3.2 0.00 0.00 0.00 87 1014.7
20260502044205 8 175 3.2 8.0 0.00 0.00 0.00 87 1014.7
20260502043706 8 159 6.4 12.9 0.00 0.00 0.00 87 1014.7
20260502043205 8 197 8.0 14.5 0.00 0.00 0.00 87 1014.6
20260502042705 8 232 8.0 12.9 0.00 0.00 0.00 87 1014.7
20260502042205 8 233 8.0 16.1 0.00 0.00 0.00 87 1014.7
20260502041705 9 252 8.0 11.3 0.00 0.00 0.00 87 1014.8
20260502041205 9 249 11.3 19.3 0.00 0.00 0.00 87 1014.9
20260502040705 9 248 8.0 16.1 0.00 0.00 0.00 86 1014.8
20260502040205 9 228 11.3 16.1 0.00 0.00 0.00 86 1014.9
20260502035705 9 230 8.0 9.7 0.00 0.00 0.00 86 1014.9
20260502034705 9 237 4.8 9.7 0.00 0.00 0.00 85 1015.0
20260502034205 10 248 3.2 12.9 0.00 0.00 0.00 85 1015.0
20260502033705 10 252 8.0 16.1 0.00 0.00 0.00 85 1014.9
20260502032705 10 291 6.4 9.7 0.00 0.00 0.00 86 1014.9
20260502032205 10 239 6.4 9.7 0.00 0.00 0.00 86 1014.8
20260502031705 10 239 4.8 11.3 0.00 0.00 0.00 86 1014.8
20260502031205 10 212 6.4 11.3 0.00 0.00 0.00 86 1014.8
20260502030706 10 230 4.8 11.3 0.00 0.00 0.00 86 1014.9
20260502030205 10 260 4.8 8.0 0.00 0.00 0.00 86 1014.8
20260502025705 10 229 3.2 8.0 0.00 0.00 0.00 86 1014.9
20260502025205 10 218 3.2 8.0 0.00 0.00 0.00 86 1014.9
20260502024705 10 202 4.8 8.0 0.00 0.00 0.00 87 1015.1
20260502023705 10 289 6.4 11.3 0.00 0.00 0.00 87 1015.1
20260502023205 10 235 8.0 14.5 0.00 0.00 0.00 88 1015.1
20260502022705 10 229 3.2 11.3 0.00 0.00 0.00 89 1015.2
20260502021705 11 222 8.0 11.3 0.00 0.00 0.00 89 1015.3
20260502021205 11 166 1.6 9.7 0.00 0.00 0.00 89 1015.3
20260502020205 11 215 1.6 4.8 0.00 0.00 0.00 88 1015.4
20260502015705 11 200 1.6 4.8 0.00 0.00 0.00 88 1015.4
20260502015205 11 231 1.6 8.0 0.00 0.00 0.00 88 1015.4
20260502014705 11 216 3.2 11.3 0.00 0.00 0.00 88 1015.4
20260502014205 11 320 1.6 4.8 0.00 0.00 0.00 87 1015.4
20260502013705 11 334 4.8 9.7 0.00 0.00 0.00 87 1015.5
20260502012705 11 257 6.4 9.7 0.00 0.00 0.00 86 1015.6
20260502012205 11 288 1.6 8.0 0.00 0.00 0.00 86 1015.7
20260502011705 11 345 4.8 12.9 0.00 0.00 0.00 86 1015.8
20260502011204 11 346 4.8 12.9 0.00 0.00 0.00 86 1015.8
20260502010705 11 0 3.2 19.3 0.00 0.00 0.00 86 1015.9
20260502010205 11 44 1.6 19.3 0.00 0.00 0.00 85 1015.9
20260502005705 11 63 4.8 9.7 0.00 0.00 0.00 85 1016.0
20260502005205 12 64 3.2 8.0 0.00 0.00 0.00 85 1015.9
20260502004705 12 30 3.2 4.8 0.00 0.00 0.00 85 1015.9
20260502004205 12 44 3.2 9.7 0.00 0.00 0.00 85 1015.9
20260502003705 12 249 11.3 20.9 0.00 0.00 0.00 85 1015.9
20260502003205 12 245 4.8 9.7 0.00 0.00 0.00 84 1016.0
20260502002205 12 36 1.6 12.9 0.00 0.00 0.00 83 1016.0
20260502001705 12 230 1.6 4.8 0.00 0.00 0.00 83 1016.1
20260502001205 12 62 8.0 11.3 0.00 0.00 0.00 83 1016.1
20260502000705 12 180 3.2 11.3 0.00 0.00 0.00 82 1016.1
20260502000205 12 180 3.2 9.7 0.00 0.00 0.00 81 1016.2
20260501235705 12 70 1.6 8.0 0.00 0.00 0.00 81 1016.2
20260501234206 12 341 8.0 12.9 0.00 0.00 0.00 79 1016.2
20260501233705 12 349 9.7 16.1 0.00 0.00 0.00 79 1016.2
20260501233205 12 296 8.0 12.9 0.00 0.00 0.00 78 1016.3
20260501232705 12 328 4.8 8.0 0.00 0.00 0.00 78 1016.3
20260501232205 12 203 4.8 11.3 0.00 0.00 0.00 77 1016.4
20260501231205 12 0 1.6 3.2 0.00 0.00 0.00 76 1016.3
20260501230712 12 359 0.0 3.2 0.00 0.00 0.00 75 1016.4
20260501230205 12 341 0.0 3.2 0.00 0.00 0.00 75 1016.3
20260501225705 12 340 1.6 3.2 0.00 0.00 0.00 75 1016.4
20260501224205 12 53 3.2 11.3 0.00 0.00 0.00 75 1016.4
20260501223704 13 108 0.0 3.2 0.00 0.00 0.00 74 1016.4
20260501223205 13 135 3.2 4.8 0.00 0.00 0.00 74 1016.4
20260501222705 13 47 0.0 4.8 0.00 0.00 0.00 74 1016.4
20260501222205 13 78 1.6 4.8 0.00 0.00 0.00 73 1016.4
20260501221704 13 331 1.6 8.0 0.00 0.00 0.00 73 1016.5
20260501221205 13 242 4.8 9.7 0.00 0.00 0.00 73 1016.5
20260501220705 13 181 1.6 4.8 0.00 0.00 0.00 73 1016.5
20260501215704 13 105 3.2 9.7 0.00 0.00 0.00 72 1016.5
20260501215205 13 117 0.0 4.8 0.00 0.00 0.00 72 1016.6
20260501214704 13 99 3.2 4.8 0.00 0.00 0.00 72 1016.5
20260501214205 13 105 0.0 1.6 0.00 0.00 0.00 71 1016.5
20260501213706 13 103 3.2 9.7 0.00 0.00 0.00 71 1016.4
20260501213205 13 34 1.6 9.7 0.00 0.00 0.00 71 1016.5
20260501212705 13 241 4.8 11.3 0.00 0.00 0.00 71 1016.4
20260501211705 13 301 4.8 11.3 0.00 0.00 0.00 70 1016.3
20260501211205 13 290 8.0 11.3 0.00 0.00 0.00 69 1016.3
20260501210705 13 271 4.8 11.3 0.00 0.00 0.00 69 1016.4
20260501210205 13 337 8.0 12.9 0.00 0.00 0.00 69 1016.4
20260501205706 14 303 8.0 12.9 0.00 0.00 0.00 69 1016.4
20260501204706 14 321 11.3 19.3 0.00 0.00 0.00 68 1016.5
20260501204206 14 326 9.7 19.3 0.00 0.00 0.00 67 1016.5
20260501203706 15 331 11.3 22.5 0.00 0.00 0.00 67 1016.5
20260501203206 15 307 11.3 19.3 0.00 0.00 0.00 67 1016.6
20260501202706 15 308 8.0 12.9 0.00 0.00 0.00 68 1016.5
20260501202206 15 322 6.4 12.9 0.00 0.00 0.00 69 1016.5
20260501201706 15 323 1.6 4.8 0.00 0.00 0.00 70 1016.5
20260501201206 16 104 1.6 4.8 0.00 0.00 0.00 70 1016.6
20260501200707 16 280 0.0 1.6 0.00 0.00 0.00 69 1016.6
20260501200206 16 281 1.6 3.2 0.00 0.00 0.00 69 1016.5
20260501195706 16 281 4.8 8.0 0.00 0.00 0.00 68 1016.5
20260501195206 16 251 4.8 8.0 0.00 0.00 0.00 68 1016.5
20260501194706 16 258 1.6 4.8 0.00 0.00 0.00 67 1016.5
20260501194206 16 209 4.8 8.0 0.00 0.00 0.00 66 1016.4
20260501193706 16 196 6.4 9.7 0.00 0.00 0.00 65 1016.4
20260501193206 16 207 3.2 8.0 0.00 0.00 0.00 65 1016.3
20260501192206 16 219 4.8 11.3 0.00 0.00 0.00 63 1016.3
20260501191707 16 288 8.0 11.3 0.00 0.00 0.00 64 1016.2
20260501191206 16 283 4.8 8.0 0.00 0.00 0.00 65 1016.3
20260501190706 16 242 6.4 9.7 0.00 0.00 0.00 65 1016.2
20260501190206 16 246 8.0 9.7 0.00 0.00 0.00 64 1016.2
20260501185706 17 243 4.8 8.0 0.00 0.00 0.00 63 1016.2
20260501185206 17 236 6.4 9.7 0.00 0.00 0.00 62 1016.1
20260501184206 17 245 9.7 12.9 0.00 0.00 0.00 62 1016.0
20260501183706 17 236 8.0 9.7 0.00 0.00 0.00 62 1016.1
20260501183205 17 226 3.2 4.8 0.00 0.00 0.00 61 1016.0
20260501182706 17 248 1.6 4.8 0.00 0.00 0.00 60 1016.0
20260501182207 17 186 3.2 4.8 0.00 0.00 0.00 59 1016.0
20260501181707 17 162 4.8 9.7 0.00 0.00 0.00 60 1016.0
20260501181206 17 186 4.8 8.0 0.00 0.00 0.00 60 1016.1
20260501180706 18 196 4.8 9.7 0.00 0.00 0.00 60 1016.1
20260501180207 18 177 4.8 9.7 0.00 0.00 0.00 59 1016.2
20260501175706 18 159 4.8 11.3 0.00 0.00 0.00 58 1016.2
20260501175207 19 159 6.4 14.5 0.00 0.00 0.00 57 1016.2
20260501174707 20 164 8.0 16.1 0.00 0.00 0.00 55 1016.2
20260501174206 20 156 3.2 4.8 0.00 0.00 0.00 54 1016.1
20260501171706 21 206 9.7 19.3 0.00 0.00 0.00 50 1016.2
20260501165707 21 221 9.7 14.5 0.00 0.00 0.00 51 1016.2
20260501165206 21 218 11.3 19.3 0.00 0.00 0.00 49 1016.2
20260501164207 21 207 12.9 19.3 0.00 0.00 0.00 47 1016.3
20260501163707 21 222 8.0 16.1 0.00 0.00 0.00 48 1016.3
20260501163207 21 201 12.9 19.3 0.00 0.00 0.00 47 1016.2
20260501162707 21 184 9.7 19.3 0.00 0.00 0.00 47 1016.2
20260501161707 21 200 11.3 19.3 0.00 0.00 0.00 46 1016.2